User: anonymous   Login
Location: Unspecified
(0.0000°N, 0.0000°E)
Time: 20:57:30
(UTC+00:00)
Language:

Sunsat (SO-35) - Orbit

View from above orbital plane
View from above orbital plane
View from above satellite
View from above satellite

Ground track
Ground track

The orbit data is extracted from the following two-line orbital elements,

1 25636U 99008C   22221.50992809  .00000166  00000-0  49316-4 0  9999
2 25636  96.4494  50.0212 0146715 120.2948 241.2858 14.44872124235850
Epoch (UTC): 09 August 2022 12:14:17
Eccentricity: 0.0146715
inclination: 96.4494°
perigee height: 638 km
apogee height: 847 km
right ascension of ascending node: 50.0212°
argument of perigee: 120.2948°
revolutions per day: 14.44872124
mean anomaly at epoch: 241.2858°
orbit number at epoch: 23585

The dashed part of the orbit path shows where the satellite is in the earth's shadow,  

DLR